Weather History for KFKS - December, 2013

Change the Weather History Date:

Monday, December 16, 2013

  Actual Average (KTVC) Record (KTVC)
Temperature  
Mean Temperature 18 °F 26 °F  
Max Temperature 22 °F 32 °F 60 °F (1984)
Min Temperature 13 °F 21 °F -3 °F (1973)
Degree Days  
Heating Degree Days 48 39  
Month to date heating degree days 580  
Since 1 July heating degree days 2199  
Moisture  
Dew Point 14 °F    
Average Humidity 83    
Maximum Humidity 90    
Minimum Humidity 62    
Precipitation  
Precipitation 0.00 in 0.08 in 1.18 in (1972)
Month to date precipitation 1.28  
Year to date precipitation 31.84  
Sea Level Pressure  
Sea Level Pressure 30.02 in    
Wind  
Wind Speed 6 mph (SE)    
Max Wind Speed 12 mph    
Max Gust Speed 20 mph    
Visibility 5 miles    
Events Snow    
T = Trace of Precipitation, MM = Missing Value Source: NWS Daily Summary

Daily Weather History Graph

Daily Weather History Graph

Search for Another Location

Airport or City:

Trip Planner

Search our weather history database for the weather conditions in past years. The results will help you decide how hot, cold, wet, or windy it might be!

Date:

Astronomy

Dec. 16, 2013 Rise Set
Actual Time 8:15 AM EST 5:05 PM EST
Civil Twilight 7:42 AM EST 5:39 PM EST
Nautical Twilight 7:05 AM EST 6:15 PM EST
Astronomical Twilight 6:29 AM EST 6:51 PM EST
Moon 4:57 PM EST (12/16) 7:21 AM EST (12/16)
Length of Visible Light 9h 56m
Length of Day
8h 49m
Full, 100% of the Moon is Illuminated
Dec 16
Full
Dec 17
Full
Dec 25
Last Quarter
Jan 1
New
Jan 7
First Quarter

Hourly Weather History & Observations

Time (EST) Temp. Windchill Dew Point Humidity Pressure Visibility Wind Dir Wind Speed Gust Speed Precip Events Conditions
12:13 AM 20.3 °F 12.5 °F 17.6 °F 89% 29.98 in 0.8 mi North 5.8 mph - N/A Snow Snow
12:33 AM 20.3 °F 13.8 °F 17.4 °F 89% 29.98 in 1.0 mi North 4.6 mph - N/A Snow Snow
12:53 AM 20.3 °F 10.6 °F 17.4 °F 89% 29.98 in 1.0 mi North 8.1 mph - N/A Snow Snow
1:13 AM 19.9 °F 10.1 °F 16.3 °F 86% 29.98 in 2.0 mi NE 8.1 mph - N/A Snow Light Snow
1:33 AM 19.4 °F 14.3 °F 16.7 °F 89% 29.99 in 1.8 mi NE 3.5 mph - N/A Snow Light Snow
1:56 AM 19.2 °F 14.1 °F 15.8 °F 87% 30.00 in 1.8 mi ENE 3.5 mph - N/A Snow Light Snow
2:11 AM 18.9 °F - 15.8 °F 88% 30.00 in 1.0 mi Calm Calm - N/A Snow Snow
2:33 AM 18.9 °F 13.7 °F 16.2 °F 89% 30.01 in 1.0 mi SSE 3.5 mph - N/A Snow Snow
2:53 AM 18.3 °F 13.1 °F 15.8 °F 90% 30.02 in 1.8 mi SE 3.5 mph - N/A Snow Light Snow
3:13 AM 18.0 °F 12.7 °F 15.4 °F 90% 30.04 in 0.8 mi ESE 3.5 mph - N/A Snow Snow
3:34 AM 17.6 °F 12.3 °F 14.9 °F 89% 30.04 in 1.2 mi ESE 3.5 mph - N/A Snow Light Snow
3:54 AM 17.1 °F - 14.2 °F 88% 30.05 in 1.2 mi Calm Calm - N/A Snow Light Snow
4:14 AM 16.7 °F - 14.0 °F 89% 30.05 in 1.0 mi Calm Calm - N/A Snow Snow
4:34 AM 16.5 °F 11.0 °F 13.8 °F 89% 30.05 in 2.0 mi ESE 3.5 mph - N/A Snow Light Snow
4:54 AM 16.3 °F 10.8 °F 13.1 °F 87% 30.05 in 2.5 mi ESE 3.5 mph - N/A Snow Light Snow
5:14 AM 16.2 °F - 13.1 °F 88% 30.05 in 4.0 mi Calm Calm - N/A Snow Light Snow
5:34 AM 15.8 °F 10.2 °F 12.9 °F 88% 30.05 in 5.0 mi East 3.5 mph - N/A Snow Light Snow
5:54 AM 15.8 °F - 12.9 °F 88% 30.05 in 5.0 mi Calm Calm - N/A Snow Light Snow
6:14 AM 15.8 °F - 12.9 °F 88% 30.05 in 7.0 mi Calm Calm - N/A Snow Light Snow
6:35 AM 15.4 °F 9.8 °F 12.6 °F 88% 30.06 in 7.0 mi SE 3.5 mph - N/A Snow Light Snow
6:55 AM 15.3 °F 7.9 °F 12.0 °F 87% 30.07 in 10.0 mi SE 4.6 mph - N/A Snow Light Snow
7:15 AM 14.9 °F 9.2 °F 11.8 °F 88% 30.08 in 7.0 mi ESE 3.5 mph - N/A Snow Light Snow
7:35 AM 14.7 °F 9.0 °F 11.3 °F 86% 30.08 in 7.0 mi SE 3.5 mph - N/A Snow Light Snow
7:55 AM 14.7 °F 7.3 °F 11.1 °F 86% 30.09 in 10.0 mi SE 4.6 mph - N/A   Overcast
8:15 AM 14.4 °F 8.6 °F 10.4 °F 84% 30.09 in 7.0 mi SE 3.5 mph - N/A Snow Light Snow
8:35 AM 13.8 °F 8.0 °F 10.2 °F 86% 30.09 in 10.0 mi SE 3.5 mph - N/A   Overcast
8:55 AM 13.8 °F 6.2 °F 9.9 °F 84% 30.10 in 10.0 mi SSE 4.6 mph - N/A   Overcast
9:16 AM 13.8 °F 6.2 °F 9.5 °F 83% 30.11 in 10.0 mi ESE 4.6 mph - N/A   Overcast
9:36 AM 14.0 °F 3.9 °F 9.5 °F 82% 30.11 in 10.0 mi ESE 6.9 mph - N/A   Overcast
9:56 AM 14.4 °F 6.9 °F 9.5 °F 81% 30.11 in 10.0 mi SE 4.6 mph - N/A   Overcast
10:16 AM 14.5 °F 5.7 °F 9.3 °F 80% 30.11 in 10.0 mi SE 5.8 mph - N/A   Mostly Cloudy
10:36 AM 15.4 °F 4.6 °F 9.3 °F 77% 30.11 in 10.0 mi SE 8.1 mph - N/A   Clear
10:56 AM 16.2 °F 6.5 °F 9.5 °F 75% 30.10 in 10.0 mi SE 6.9 mph - N/A   Clear
11:11 AM 16.7 °F 8.3 °F 9.5 °F 73% 30.10 in 10.0 mi SE 5.8 mph - N/A   Clear
11:31 AM 17.4 °F 7.1 °F 9.7 °F 72% 30.09 in 10.0 mi SE 8.1 mph - N/A   Clear
11:51 AM 19.2 °F 9.3 °F 10.2 °F 68% 30.09 in 10.0 mi SE 8.1 mph - N/A   Mostly Cloudy
12:11 PM 19.2 °F 10.2 °F 10.4 °F 69% 30.08 in 10.0 mi SE 6.9 mph - N/A   Scattered Clouds
12:32 PM 19.8 °F 9.1 °F 10.9 °F 69% 30.07 in 10.0 mi SE 9.2 mph - N/A   Mostly Cloudy
12:52 PM 19.8 °F 9.1 °F 10.4 °F 67% 30.05 in 10.0 mi SE 9.2 mph - N/A   Overcast
1:12 PM 20.7 °F 11.9 °F 11.3 °F 67% 30.04 in 10.0 mi SE 6.9 mph - N/A   Overcast
1:32 PM 21.0 °F 9.9 °F 11.1 °F 66% 30.04 in 10.0 mi SSE 10.4 mph - N/A   Overcast
1:52 PM 22.1 °F 13.7 °F 12.0 °F 65% 30.03 in 10.0 mi South 6.9 mph - N/A   Overcast
2:12 PM 21.9 °F 11.7 °F 10.8 °F 62% 30.02 in 10.0 mi SSE 9.2 mph - N/A   Scattered Clouds
2:32 PM 21.0 °F 11.4 °F 11.5 °F 67% 30.01 in 10.0 mi SE 8.1 mph - N/A   Mostly Cloudy
2:52 PM 21.6 °F 10.6 °F 12.6 °F 68% 30.01 in 10.0 mi SSE 10.4 mph - N/A   Overcast
3:13 PM 21.4 °F 11.9 °F 13.5 °F 72% 30.01 in 10.0 mi SSE 8.1 mph - N/A Snow Light Snow
3:33 PM 21.4 °F 12.8 °F 14.4 °F 74% 29.99 in 10.0 mi SE 6.9 mph - N/A Snow Light Snow
3:53 PM 21.6 °F 12.1 °F 14.9 °F 76% 29.99 in 10.0 mi SE 8.1 mph - N/A   Overcast
4:13 PM 21.6 °F 12.1 °F 15.6 °F 78% 30.00 in 7.0 mi SE 8.1 mph - N/A Snow Light Snow
4:33 PM 21.2 °F 11.7 °F 16.2 °F 81% 30.01 in 4.0 mi SE 8.1 mph - N/A Snow Light Snow
4:53 PM 21.0 °F 9.9 °F 16.5 °F 83% 30.01 in 3.0 mi SE 10.4 mph - N/A Snow Light Snow
5:13 PM 20.7 °F 14.2 °F 16.7 °F 85% 30.01 in 4.0 mi SE 4.6 mph - N/A Snow Light Snow
5:33 PM 20.3 °F 13.8 °F 17.1 °F 87% 30.01 in 3.0 mi SSE 4.6 mph - N/A Snow Light Snow
5:54 PM 20.3 °F 10.6 °F 17.1 °F 87% 30.00 in 2.5 mi SSE 8.1 mph - N/A Snow Light Snow
6:14 PM 20.3 °F 10.6 °F 17.1 °F 87% 30.00 in 4.0 mi SSE 8.1 mph - N/A Snow Light Snow
6:34 PM 20.7 °F 11.9 °F 16.9 °F 85% 29.99 in 5.0 mi SSE 6.9 mph - N/A Snow Light Snow
6:54 PM 20.7 °F 10.2 °F 17.1 °F 86% 29.98 in 2.5 mi SE 9.2 mph - N/A Snow Light Snow
7:14 PM 20.3 °F 9.0 °F 17.4 °F 89% 29.97 in 1.8 mi SSE 10.4 mph - N/A Snow Light Snow
7:34 PM 19.8 °F 8.3 °F 16.7 °F 88% 29.97 in 1.5 mi SSE 10.4 mph - N/A Snow Light Snow
7:54 PM 19.2 °F 8.4 °F 16.3 °F 89% 29.96 in 1.8 mi SSE 9.2 mph - N/A Snow Light Snow
8:14 PM 19.0 °F 7.5 °F 15.8 °F 87% 29.96 in 3.0 mi SSE 10.4 mph - N/A Snow Light Snow
8:34 PM 18.9 °F 8.0 °F 15.4 °F 87% 29.95 in 2.5 mi SSE 9.2 mph 16.1 mph N/A Snow Light Snow
8:54 PM 18.5 °F 7.5 °F 15.4 °F 88% 29.95 in 3.0 mi SSE 9.2 mph - N/A Snow Light Snow
9:15 PM 18.5 °F 8.4 °F 15.3 °F 87% 29.94 in 2.5 mi SSE 8.1 mph - N/A Snow Light Snow
9:35 PM 18.3 °F 7.3 °F 15.3 °F 88% 29.93 in 1.2 mi SSE 9.2 mph - N/A Snow Snow
9:55 PM 18.1 °F 5.6 °F 15.3 °F 88% 29.93 in 1.2 mi SSE 11.5 mph - N/A Snow Light Snow
10:15 PM 18.1 °F 5.6 °F 14.9 °F 87% 29.93 in 1.5 mi SSE 11.5 mph - N/A Snow Light Snow
10:35 PM 18.0 °F 5.4 °F 14.9 °F 88% 29.93 in 0.8 mi SSE 11.5 mph 19.6 mph N/A Snow Snow
10:55 PM 17.6 °F 6.4 °F 14.9 °F 89% 29.93 in 1.0 mi South 9.2 mph - N/A Snow Snow
11:16 PM 18.0 °F 5.4 °F 15.1 °F 88% 29.93 in 1.0 mi South 11.5 mph - N/A Snow Snow
11:36 PM 18.0 °F 6.1 °F 15.3 °F 89% 29.92 in 0.8 mi South 10.4 mph - N/A Snow Snow
11:56 PM 18.1 °F 7.1 °F 15.4 °F 89% 29.92 in 1.5 mi South 9.2 mph - N/A Snow Light Snow